Flag for India Weather past 2 weeks in Thiruvananthapuram, Kerala, India

79 °F

Partly cloudy.

Feels Like: 82 °F
Forecast: 77 / 86 °F
Wind: 7 mph from East

Location: Thiruvananthapuram

Current Time: Nov 28, 2015 at 10:11:07 PM

Latest Report: Nov 28, 2015 at 9:30 PM

Visibility: 2 mi

Pressure: 29.89 "Hg

Humidity: 89%

Dew point: 75 °F

Location of ThiruvananthapuramLocation

Historic Weather in Thiruvananthapuram — Graph


Thiruvananthapuram temperature yesterday

Maximum temperature yesterday: 90 °F (at 2:00 PM)
Minimum temperature yesterday: 79 °F (at 1:30 AM)
Average temperature yesterday: 84 °F

Past Weeks' High & Low Weather Summary

High90 °F (Nov 17, 1:00 PM)94% (Nov 13, 8:40 PM)29.89 "Hg (Nov 13, 8:40 PM)
Low77 °F (Nov 13, 10:40 PM)66% (Nov 21, 11:30 AM)29.68 "Hg (Nov 15, 3:00 PM)
Average82 °F82%29.78 "Hg
* Reported Nov 13 8:40 PM — Nov 28 9:00 PM, Thiruvananthapuram, Weather by CustomWeather, © 2015

Note: Actual official high and low records may vary slightly from our data, if they occured in-between our weather recording intervals... More about our weather records


Thiruvananthapuram weather history for previous 24 hours

Time TempWeatherWind HumidityBarometerVisibility
9:00 PM
Sat, Nov 28
79 °FPartly cloudy.3 mph89%29.89 "Hg2 mi
8:30 PM79 °FPartly cloudy.5 mph89%29.89 "Hg2 mi
8:00 PM79 °FPartly cloudy.6 mph94%29.89 "Hg2 mi
7:30 PM79 °FPartly cloudy.7 mph94%29.86 "Hg2 mi
7:00 PM79 °FPassing clouds.3 mph94%29.86 "Hg2 mi
6:30 PM79 °FPartly cloudy.5 mph94%29.83 "Hg2 mi
5:30 PM81 °FThunderstorms. Broken clouds.3 mph89%29.80 "Hg1 mi
5:00 PM81 °FThunderstorms. Broken clouds.6 mph84%29.80 "Hg1 mi
4:30 PM82 °FThunderstorms. Broken clouds.5 mph84%29.80 "Hg2 mi
3:30 PM88 °FThunderstorms. Broken clouds.6 mph66%29.80 "Hg3 mi
2:30 PM88 °FBroken clouds.9 mph70%29.80 "Hg4 mi
2:00 PM88 °FBroken clouds.7 mph70%29.80 "Hg4 mi
1:30 PM88 °FBroken clouds.7 mph70%29.83 "Hg4 mi
1:00 PM86 °FBroken clouds.3 mph75%29.83 "Hg4 mi
12:30 PM88 °FBroken clouds.9 mph70%29.86 "Hg4 mi
12:00 PM86 °FScattered clouds.6 mph70%29.86 "Hg4 mi
11:30 AM86 °FScattered clouds.5 mph70%29.86 "Hg4 mi
11:00 AM86 °FScattered clouds.6 mph75%29.89 "Hg4 mi
10:00 AM84 °FScattered clouds.5 mph79%29.89 "Hg3 mi
9:30 AM84 °FScattered clouds.6 mph79%29.89 "Hg3 mi
9:00 AM84 °FScattered clouds.No wind79%29.89 "Hg2 mi
8:30 AM82 °FScattered clouds.No wind84%29.89 "Hg2 mi
8:00 AM81 °FBroken clouds.No wind84%29.86 "Hg2 mi
7:30 AM81 °FBroken clouds.No wind84%29.86 "Hg2 mi
7:00 AM79 °FScattered clouds.3 mph89%29.83 "Hg2 mi
6:00 AM79 °FPassing clouds.No wind89%29.80 "Hg2 mi
5:30 AM79 °FPassing clouds.No wind89%29.80 "Hg2 mi
5:00 AM79 °FPartly cloudy.No wind89%29.80 "Hg2 mi
2:30 AM81 °FPassing clouds.No wind89%29.80 "Hg2 mi
1:30 AM81 °FPassing clouds.No wind89%29.83 "Hg2 mi
12:30 AM81 °FPassing clouds.5 mph89%29.86 "Hg2 mi
11:30 PM
Fri, Nov 27
81 °FPassing clouds.9 mph89%29.86 "Hg2 mi
10:30 PM82 °FThunderstorms. Passing clouds.No wind84%29.86 "Hg2 mi
10:00 PM82 °FThunderstorms. Passing clouds.6 mph84%29.86 "Hg2 mi
Weather by CustomWeather, © 2015

See weather overviewHow to use our weather pages